Regional Weather Roundup
Issued by NWS Wakefield, VA

Home | Current Version | Previous Version | Text Only | Print | Product List | Glossary Off
Versions: 1 2 3 4 5 6 7 8 9 10 11 12 13 14 15 16 17 18 19 20 21 22 23 24 25 26 27 28 29 30 31 32 33 34 35 36 37 38 39 40 41 42 43 44 45 46 47 48 49 50

000
ASUS41 KAKQ 201710
RWRAKQ

REGIONAL WEATHER ROUNDUP
NATIONAL WEATHER SERVICE WAKEFIELD VA
100 PM EDT WED AUG 20 2014

Note: "fair" indicates few or no clouds below 12,000 feet with no
significant weather and/or obstructions to visibility. * = Denotes
station may not report precipitation (e.g., rain,snow,etc.),
thunder or fog.

VAZ042-051-052>054-056-201800-
NORTHERN VIRGINIA

CITY           SKY/WX    TMP DP  RH WIND       PRES   REMARKS
WASH NATIONAL  MOSUNNY   85  64  49 S9        29.98F
DULLES         MOSUNNY   81  66  60 S13       29.97F
FORT BELVOIR   SUNNY     83  68  60 SE8       29.98F
QUANTICO       MOSUNNY   82  66  58 S9        29.99F
FREDERICKSBRG* SUNNY     85  64  49 SE8       29.98F
STAFFORD*      MOSUNNY   82  66  58 SE5       30.02F
WARRENTON      MOSUNNY   85  75  72 SE9       29.97F
CULPEPER*      MOSUNNY  N/A N/A N/A S7        29.97F
MANASSAS*      NOT AVBL
LEESBURG*      SUNNY     86  70  58 S13G21    29.96F
WINCHESTER     PTSUNNY   82  68  61 SE13G18   29.94F
$$

VAZ048-049-060>072-079>083-201800-
CENTRAL AND SOUTH CENTRAL VIRGINIA...AND NORTH CENTRAL NORTH CAROLINA

CITY           SKY/WX    TMP DP  RH WIND       PRES   REMARKS
RICHMOND       PTSUNNY   85  65  51 VRB3      29.98F
CHESTERFIELD*  CLOUDY   N/A N/A N/A SE7       30.00F
HANOVER        PTSUNNY   84  64  50 VRB3      29.99F
TAPPAHANNOCK*  SUNNY     83  54  37 SE3       30.01S
CHARLOTTSVILLE PTSUNNY   83  70  64 S9        29.97F
ORANGE*        MOSUNNY   82  68  61 SE8       29.98F
LOUISA*        MOSUNNY   82  72  69 SE5       29.98F
FARMVILLE*     PTSUNNY   82  70  65 SE7       29.97F
SOUTH HILL*    PTSUNNY   82  73  74 CALM      30.05F
ROANOKE RAPIDS CLOUDY    81  72  74 W6        30.01S
RALEIGH        PTSUNNY   84  71  65 CALM      30.01F
$$

VAZ088>098-201800-
SOUTHEAST VIRGINIA

CITY           SKY/WX    TMP DP  RH WIND       PRES   REMARKS
NORFOLK        SUNNY     81  68  64 NE8       29.99F
VIRGINIA BEACH MOSUNNY   82  68  62 NE6       29.98F
NORFOLK NAVAL  MOSUNNY   83  69  62 NE8       30.00F
WEST POINT*    SUNNY     85  60  43 E6        30.00F
NEWPORT NEWS   SUNNY     86  65  49 E7        29.99F
LANGLEY AFB    SUNNY     80  67  65 E7        29.99F
FORT EUSTIS    MOSUNNY   84  58  42 NE6       29.98S
WILLIAMSBURG*  SUNNY     88  68  51 CALM      29.99F
FRANKLIN*      MOSUNNY   84  70  61 NE5       29.98F
WAKEFIELD      MOSUNNY   85  70  60 VRB5      29.99F
$$

VAZ020-022-025-037-045-201800-
WESTERN AND SOUTHWEST VIRGINIA

CITY           SKY/WX    TMP DP  RH WIND       PRES   REMARKS
STAUNTON*      CLOUDY    82  67  59 SW9       30.01F
HOT SPRINGS VA CLOUDY    69  64  83 CALM      30.15F HAZE
LYNCHBURG      PTSUNNY   77  72  84 CALM      30.03S
DANVILLE       PTSUNNY   81  72  74 VRB3      29.99S
MARTINSVILLE   CLOUDY    84  71  65 S3        30.02F
ROANOKE        CLOUDY    78  69  73 CALM      30.03F
BLACKSBURG     MOSUNNY   79  72  78 W3        30.08F
DUBLIN*        MOSUNNY   78  72  84 SW9       30.08S
MARION*        PTSUNNY   75  67  76 W9        30.12F
HILLSVILLE*    MOSUNNY   74  64  70 SW7       30.11S
RICHLANDS*     SUNNY     78  68  73 SW6       30.11F
WISE*          MOSUNNY   79  70  73 SW14      30.12F
ABINGDON*      MOSUNNY   76  69  79 W5        30.10F
$$

MDZ021>025-VAZ099-100-201800-
SOUTHERN MARYLAND AND THE DELMARVA PENINSULA

CITY           SKY/WX    TMP DP  RH WIND       PRES   REMARKS
PATUXENT RIVER MOSUNNY   81  64  56 SE6       30.00F
BAY BRIDGE APT   N/A     81  57  44 S7        29.99F
LEONARDTOWN    SUNNY     81  55  41 E6        30.01F
DOVER          SUNNY     79  61  53 SE8       29.99F
GEORGETOWN     SUNNY     81  59  47 MISG      30.01S
EASTON         MOSUNNY   84  63  48 E5        30.03F
CAMBRIDGE      SUNNY     82  59  44 SE7       29.99F
SALISBURY      SUNNY     85  63  47 NE6       29.99F
OCEAN CITY     SUNNY     78  68  71 E8        30.00F
WALLOPS ISLAND MOSUNNY   80  66  62 E9        30.01S
ACCOMACK*      SUNNY     81  61  50 E10       29.99F
$$

NCZ012>017-030>032-201800-
EASTERN NORTH CAROLINA

CITY           SKY/WX    TMP DP  RH WIND       PRES   REMARKS
ELIZABETH CITY PTSUNNY   83  70  64 VRB5      29.98S
AHOSKIE*       MOSUNNY   81  69  67 CALM      29.99F
EDENTON*       PTSUNNY   81  71  71 S5        29.99S
CURRITUCK*     MOSUNNY   84  68  57 E7        29.99S
KILL DEVIL HLS SUNNY     81  72  73 NE7       29.97S
MANTEO         PTSUNNY   81  72  74 NE9       29.98S
CAPE HATTERAS  PTSUNNY   82  75  79 N9        29.96F
GOLDSBORO      MOSUNNY   85  77  76 NE7       29.98S HX  95
WASHINGTON     MOSUNNY   83  73  70 W5        29.99S
GREENVILLE     MOSUNNY   82  72  69 NW6       30.01F
NEW BERN       PTSUNNY   85  72  65 N6        29.99S
WILMINGTON     PTSUNNY   88  76  67 MISG      29.98F HX  99
$$

VAZ048-201800-
ELSEWHERE

CITY           SKY/WX    TMP DP  RH WIND       PRES   REMARKS
HARRISBURG PA  PTSUNNY   81  64  56 S8        29.96F
BALTIMORE      PTSUNNY   81  65  58 SE9       29.97F
ANNAPOLIS      MOSUNNY   78  64  61 SE9       29.98F
ANDREWS AFB    MOSUNNY   82  66  57 SE9       29.98F
WILMINGTON DE  MOSUNNY   81  63  54 SE8       30.00F
PHILADELPHIA   MOSUNNY   83  62  49 CALM      29.99F
WILDWOOD NJ*   SUNNY     79  61  53 E6        30.02S
ATLANTIC CITY  SUNNY     79  61  53 E5        30.00F
HENDERSON NC   PTSUNNY   80  70  71 CALM      30.01F
GREENSBORO     PTSUNNY   83  71  67 SW7       30.00S
ROCKY MOUNT    MOSUNNY   83  71  67 CALM      30.00F
FAYETTEVILLE   MOSUNNY   88  73  61 NE7       29.98F HX  95
CHARLOTTE      MOSUNNY   88  68  51 W5        30.03S
$$

VAZ100-201800-
MARINE

STATION/POSITION TIME  TEMP    WIND        PRES    WAVE   SWELL
                       AIR SEA DIR/SP/G            HT/PER HT/PER
                 (UTC) (F)     (DEG/KT/KT) (MB)    (FT/S) (FT/S)
44066 TX TWR #4  1700   72 73   50/ 12/ 14 1015.5F   3/ 6   2/ 6
CAPE MAY NJ      1700   78 80   90/  4/  8 1015.6S
LEWES DE         1700   74 76   80/  9/ 12 1015.8F
15NM E FENWICK I 1700   74 75              1015.8F   3/ 6
OCEAN-CITY-INLET 1700   75 76   70/  6/ 11 1015.6F
WACHAPREAGUE VA  1700   77 78   60/  8/ 10 1015.8F
THOMAS POINT MD  1700   76 78  180/  6/  6 1016.0F
GOOSES REEF MD   1700   76     240/  2/  4 1016.4S
COVE POINT MD    1700   76     190/  8/  9 1015.7S
SOLOMONS ISLAND  1700      80                N/A
BISHOPS HEAD MD  1700   78 78  130/  3/  5 1015.4S
PINEY POINT MD   1700          170/  8/ 10   N/A
POTOMAC MD       1600   76     140/  4/  6 1015.5F
CAMBRIDGE MD     1700   79 78   30/  3/  4 1015.2F
LEWISETTA VA     1700   76 79   90/  8/  9 1015.4F
RAPPAHANNOCK LGT 1700           40/  4/  6 1016.2S
STINGRAY PT      1700   77      50/  4/  6 1016.6S
YORK RVR RNG VA  1700   78      70/  2/  2 1015.6R
JAMESTOWN VA     1700   78     160/  8/ 10   N/A
DOMINION TERM VA 1700   77     100/  8/ 11 1015.7F
KIPTOPEKE VA     1700      83   80/  7/ 11   N/A
CHES BAY BRIDGE  1700   76 79   50/  4/  6 1015.4F
CAPE HENRY VA    1700   77      20/  7/  9 1014.6F
CHESAPEAKE LGHT  1600   75      50/  9/ 11 1016.1R
WILLOUBY STN VA  1700   76      80/  6/  8 1014.5F
S CRANEY ISL VA  1700           20/  7/  8 1015.3F
CAPE HENRY BUOY  1700      78                N/A     3/ 5
1ST LANDING BUOY 1700   77      70/  6/  8 1015.6S
CAPE CHARLES BUO 1700      78                N/A     3/ 6   2/ 6
OFFSHORE WE BUOY 1700      77                N/A     3/ 5   2/ 5
64NM E OF VA BCH 1700   77 78   40/ 12/ 14 1014.4S   3/ 6   2/ 6
DUCK PIER NC     1700   77 79   20/  8/  9 1014.4F
44056 DUCK FRF   1700                        N/A     3/ 6
OREGON INLET NC  1700   79 80   30/  9/ 12 1014.7F
HATTERAS NC      1700   80 81   40/  9/ 13 1015.1F
CAPE LOOKOUT NC  1600   82     360/  3/  6 1015.1R
$$


USA.gov is the U.S. government's official web portal to all federal, state and local government web resources and services.